Location: North Bay
(46.3091°N, 79.4608°W)
Time: 01:58:39
(UTC-05:00)

ISS - Pass Details

Date: 30 October 2019
Orbit: 412 x 421 km, 51.6° (Epoch: 17 November)

Event Time Altitude Azimuth Distance (km) Brightness Sun altitude
Exits shadow 06:55:32 17° 282° (WNW) 1,144 -2.2 -10.9°
Maximum altitude 06:57:46 40° 346° (NNW) 636 -3.0 -10.5°
Drops below altitude 10° 07:00:59 10° 58° (ENE) 1,508 -0.2 -10.0°
Sets 07:03:10 0° 66° (ENE) 2,372 1.1 -9.6°
